Flag for Japan Weather past 2 weeks in Suzuka, Japan

Now
79 °F

Pleasantly warm.


Feels Like: 78 °F
Forecast: 59 / 87 °F
Wind: 9 mph from Northwest

Location: Tsu

Current Time: May 26, 2015 at 9:23:39 PM

Latest Report: May 26, 2015 at 8:00 PM


Visibility: N/A

Pressure: 29.77 "Hg

Humidity: 19%

Dew point: 33 °F

Location of SuzukaLocation

Historic Weather in Suzuka — Graph

°F

Suzuka temperature yesterday

Maximum temperature yesterday: 76 °F (at 2:00 PM)
Minimum temperature yesterday: 62 °F (at 5:00 AM)
Average temperature yesterday: 69 °F

Past Weeks' High & Low Weather Summary

 TemperatureHumidityPressure
High87 °F (May 26, 3:00 PM)97% (May 12, 5:00 PM)30.18 "Hg (May 12, 5:00 PM)
Low56 °F (May 21, 2:00 AM)15% (May 26, 3:00 PM)29.47 "Hg (May 12, 8:00 PM)
Average69 °F64%29.82 "Hg
* Reported May 11 8:00 PM — May 26 8:00 PM, Suzuka, Weather by CustomWeather, © 2015

Note: Actual official high and low records may vary slightly from our data, if they occured in-between our weather recording intervals... More about our weather records

Advertising

Suzuka weather history for previous 24 hours

 ConditionsComfort  
Time TempWeatherWind HumidityBarometerVisibility
8:00 PM
Tue, May 26
79 °FPleasantly warm.9 mph19%29.77 "HgN/A
7:00 PM81 °FPleasantly warm.10 mph19%29.76 "HgN/A
6:00 PM84 °FPleasantly warm.9 mph20%29.74 "HgN/A
5:00 PM86 °FPleasantly warm.10 mph19%29.73 "HgN/A
4:00 PM87 °FPleasantly warm.10 mph17%29.72 "HgN/A
3:00 PM87 °FPassing clouds.12 mph15%29.74 "Hg16 mi
2:00 PM86 °FPleasantly warm.13 mph23%29.74 "HgN/A
1:00 PM85 °FPleasantly warm.12 mph29%29.76 "HgN/A
11:00 AM81 °FWarm.5 mph44%29.80 "HgN/A
10:00 AM78 °FWarm.6 mph62%29.82 "HgN/A
9:00 AM73 °FPassing clouds.6 mph67%29.83 "Hg12 mi
8:00 AM73 °FMild.3 mph63%29.84 "HgN/A
7:00 AM70 °FMild.2 mph68%29.83 "HgN/A
6:00 AM65 °FMild.3 mph78%29.82 "HgN/A
5:00 AM64 °FMild.3 mph83%29.81 "HgN/A
4:00 AM64 °FMild.3 mph81%29.80 "HgN/A
3:00 AM65 °FMild.3 mph81%29.80 "HgN/A
2:00 AM65 °FMild.2 mph81%29.80 "HgN/A
1:00 AM67 °FMild.3 mph82%29.81 "HgN/A
12:00 AM69 °FMild.2 mph83%29.82 "HgN/A
11:00 PM
Mon, May 25
70 °FMild.2 mph81%29.83 "HgN/A
10:00 PM71 °FMild.3 mph74%29.83 "HgN/A
9:00 PM72 °FOvercast.5 mph67%29.83 "Hg16 mi
Weather by CustomWeather, © 2015

See weather overviewHow to use our weather pages